Other Public Products
Issued by NWS Grand Forks, ND

Home | Current Version | Previous Version | Graphics & Text | Print | Product List | Glossary On
Versions: 1 2 3 4 5 6 7 8 9 10 11 12 13 14 15 16 17 18 19 20 21 22 23 24 25 26 27 28 29 30 31 32 33 34 35 36 37 38 39 40 41 42 43 44 45 46 47 48 49 50
000
FPUS83 KFGF 222231
OPUFGF
PRAIRIE TO PINES WEATHER ROUNDUP
NATIONAL WEATHER SERVICE EASTERN NORTH DAKOTA/GRAND FORKS ND
500 PM CDT MON MAY 22 2017

 **SATELLITE DATA USED TO AUGMENT SKY COVER AT AUTOMATED STATIONS**
 *****  WEATHER ACROSS EASTERN NORTH DAKOTA  *****

CITY           SKY/WX    TMP DP  RH WIND       PRES   REMARKS
GRAND FORKS    LGT RAIN  52  49  89 N15       29.88R
GRAND FORKS AF PTSUNNY   52  46  82 N17G24    29.88S
GRAND CITY NWS NOT AVBL
BUXTON           N/A     51  45  79 NW16        N/A
DEVILS LAKE    LGT RAIN  52  44  74 N12       29.93S
FARGO          CLOUDY    54  44  69 N21       29.87S
WAHPETON ARPT  MOCLDY    54  37  54 N15       29.87S
$$

 *****  WEATHER ACROSS CENTRAL AND WESTERN NORTH DAKOTA  *****

CITY           SKY/WX    TMP DP  RH WIND       PRES   REMARKS
JAMESTOWN      CLOUDY    54  40  59 N20       29.93R
BISMARCK       LGT RAIN  59  42  53 N14G22    29.99S
MINOT          CLOUDY    61  37  41 N17       29.97F
MINOT AFB      CLOUDY    61  36  39 N16       29.95F
GARRISON         N/A     60  35  39 N17G32    29.99R
WILLISTON      PTSUNNY   66  34  30 N16       30.06S
DICKINSON      FAIR      60  32  34 N18G24    30.03S
HETTINGER      PTSUNNY   60  33  36 N20G26    30.04S
$$

 *****  OTHER OBSERVATIONS NORTHEAST NORTH DAKOTA  *****

CITY           SKY/WX    TMP DP  RH WIND       PRES   REMARKS
WALHALLA       NOT AVBL
LANGDON        CLOUDY    50  48  93 N16G23    29.93R
CAVALIER       MOCLDY    52  46  82 N17G24    29.90R
GRAFTON        MOCLDY    50  50 100 N15G22    29.90S
CANDO          NOT AVBL
FORT TOTTEN      N/A     53  43  68 N5        29.95
ROLLA          CLOUDY    57  34  41 N29G37    29.95R HAZE
RUGBY          NOT AVBL
 ***** THE ABOVE OBSERVATIONS ARE NON NWS ARE NOT QUALITY
        CONTROLLED AND MAY MIS-REPORT RAIN FOR SNOW...
$$

 *****  OTHER OBSERVATIONS SOUTHEAST NORTH DAKOTA *****

CITY           SKY/WX    TMP DP  RH WIND       PRES   REMARKS
COOPERSTOWN    MOCLDY    50  45  81 NW16G25   29.91F
VALLEY CITY    NOT AVBL
OAKES          NOT AVBL
GWINNER        CLOUDY    55  41  58 MISG      29.90R
SHEYENNE NWR     N/A     57  42  56 N13       29.95S
BUFFALO          N/A     49  44  82 SW9         N/A
WYNDMERE         N/A     55  43  62 N16         N/A
 ***** THE ABOVE OBSERVATIONS ARE NON NWS ARE NOT QUALITY
       CONTROLLED AND MAY MIS-REPORT RAIN FOR SNOW...
$$

  *****  WEATHER ACROSS NORTHERN MINNESOTA  *****

CITY           SKY/WX    TMP DP  RH WIND       PRES   REMARKS
FLAG ISLAND    FAIR      48  43  81 N10       29.82S
WARROAD        PTSUNNY   48  45  87 N9        29.84S
ROSEAU         PTSUNNY   50  45  81 N10       29.84S
HALLOCK        PTSUNNY   54  46  76 N16G23    29.86F
THF RVR FALLS  CLOUDY    48  45  87 N9        29.86S
HALSTAD          N/A     51  43  74 N16         N/A
FOSSTON        CLOUDY    46  45  93 NW8       29.85S
BAUDETTE       CLOUDY    50  45  83 NW14      29.81S
WASKISH        LGT RAIN  46  45  93 NW7       29.82S
CROOKSTON      DRIZZLE   50  46  87 NW13      29.87S
$$
  *****  WEATHER ACROSS CENTRAL AND WEST MINNESOTA  *****

CITY           SKY/WX    TMP DP  RH WIND       PRES   REMARKS
BEMIDJI        CLOUDY    47  44  92 NW9       29.83R
PARK RAPIDS    LGT RAIN  51  39  63 NW17      29.82S
WADENA         CLOUDY    52  41  66 W10       29.84R
DETROIT LAKES  PTSUNNY   52  41  66 NW17G24   29.86S
MOORHEAD       PTSUNNY   54  43  66 NW18G26   29.88S
FERGUS FALLS   CLOUDY    54  43  66 N10       29.86R
ELBOW LAKE     CLOUDY    54  43  66 NW8       29.86S
MORRIS MN      FAIR      61  45  55 N20       29.85S
STAPLES        CLOUDY    52  39  62 NW10      29.83R
WHEATON        PTSUNNY   55  41  58 NW15      29.89R
$$
  *****  WEATHER ELSEWHERE ACROSS MINNESOTA  *****

CITY           SKY/WX    TMP DP  RH WIND       PRES   REMARKS
DULUTH         CLOUDY    53  44  71 W10       29.79S
INTRNTL FALLS  LGT RAIN  49  43  80 NW9       29.79S
ELY            RAIN      48  43  81 NW9G23    29.78R
CLOQUET        LGT RAIN  52  41  66 W7        29.80R
BRAINERD       CLOUDY    53  41  63 W8        29.82S
HIBBING        LGT RAIN  48  44  86 NW13G23   29.79R FOG
ALEXANDRIA     CLOUDY    55  42  61 NW13      29.85S
SAINT CLOUD    PTSUNNY   61  44  53 NW13      29.82S
MINNEAPOLIS    FAIR      66  42  41 NW13      29.81F
$$

  *****  WEATHER ACROSS SOUTH DAKOTA  *****

CITY           SKY/WX    TMP DP  RH WIND       PRES   REMARKS
SIOUX FALLS    CLOUDY    61  49  64 NW16G23   29.85F
BROOKINGS      RAIN      52  48  87 N12       29.88S
WATERTOWN      PTSUNNY   59  40  49 NW15      29.86F
HURON          LGT RAIN  50  48  93 CALM      29.92S
SISSETON         N/A     60  43  53 N17       29.86R
ABERDEEN       CLOUDY    59  36  42 N16       29.91R
MITCHELL       CLOUDY    57  46  66 N15       29.92R
PIERRE         FAIR      62  39  42 N16       29.94F
MOBRIDGE       CLOUDY    61  37  41 N22G28    29.94R
RAPID CITY     LGT RAIN  53  44  71 NW26G32   30.07R
$$

  *****  SOME WEATHER IN NEARBY STATES *****

CITY           SKY/WX    TMP DP  RH WIND       PRES   REMARKS
GLASGOW MT     PTSUNNY   67  32  27 N15       30.12R
GREAT FALLS MT PTSUNNY   67  35  30 NW8       30.21F
CHEYENNE WY    RAIN      40  37  89 N13G22    30.19R FOG
SCOTTSBLUFF NE CLOUDY    53  40  61 NW18G26   30.09F
OMAHA NE       PTSUNNY   69  52  54 SW18      29.83F
DES MOINES IA  CLOUDY    71  53  52 SW17      29.85F
DAVENPORT IA   FAIR      66  54  65 SW17G32   29.89F
CHICAGO IL     CLOUDY    71  40  32 SW18G25   29.89F
EAU CLAIRE WI  PTSUNNY   66  43  43 W14       29.80S
LA CROSSE WI   PTSUNNY   69  51  52 SW9       29.81S
$$

  *****  SOME NATIONAL WEATHER *****

CITY           SKY/WX    TMP DP  RH WIND       PRES   REMARKS
LA GUARDIA NY  LGT RAIN  62  59  90 S7        29.96F FOG
RALEIGH NC     CLOUDY    79  66  64 CALM      29.95F
ATLANTA GA     CLOUDY    71  66  84 NW6       29.97F
NEW ORLEANS LA CLOUDY    77  69  76 E7        29.91F
OKLAHOMA CITY  LGT RAIN  64  58  80 SE7       29.96F
ALBUQUERQUE NM FAIR      80  14   8 NW22G28   30.04F
SALT LAKE CITY FAIR      74  35  24 W13       30.19F
LOS ANGELES CA FAIR      66  58  75 W13       29.95F
BOISE ID       FAIR      80  42  25 NW9       30.15S
SEATTLE WA     FAIR      80  56  43 NW8       30.10F
$$

*** WEATHER ACROSS MANITOBA...SASKATCHEWAN AND ONTARIO ***
                ***ONTARIO***

CITY           SKY/WX    TMP DP  RH WIND       PRES   REMARKS
GERALDTON      DRIZZLE   50  46  87 W5        29.71R
THUNDER BAY    LGT RAIN  54  50  87 VRB2      29.74R
SIOUX LOOKOUT  DRIZZLE   48  46  93 N6        29.78R FOG
TORONTO        PTSUNNY   63  45  51 W17       29.92R
BIG TROUT LK   SUNNY     63  32  31 E13G24    29.96R
PICKLE LAKE    LGT RAIN  45  43  93 NE15      29.83R FOG
DRYDEN         LGT RAIN  46  46 100 NE8       29.79R
KENORA         LGT RAIN  46  45  93 NE12G17   29.83R
$$
                *** MANITOBA***

CITY           SKY/WX    TMP DP  RH WIND       PRES   REMARKS
BRANDON        PTSUNNY   59  36  41 NE25G37   29.99R
DAUPHIN        PTSUNNY   64  34  32 NE20G26   30.03S
ISLAND LAKE    NOT AVBL
PILOT MOUND      N/A     52  39  62 NE16G25     N/A
THE PAS        MOSUNNY   68  32  26 N7        30.10S
THOMPSON       MOSUNNY   66  34  30 NE10      30.13S
WINNIPEG       PTSUNNY   54  45  71 NE21G29   29.91R
LYNN LAKE      SUNNY     68  28  22 E8        30.15F
CHURCHILL      CLOUDY    32  32 100 E6        30.29S FOG
GILLAM         MOSUNNY   54  34  47 NE10      30.18S
$$
                ***SASKATCHEWAN***

CITY           SKY/WX    TMP DP  RH WIND       PRES   REMARKS
ESTEVAN        PTSUNNY   64  36  34 N18G24    30.03S
KINDERSLEY     MOSUNNY   70  32  24 VRB2      30.17S
LLOYDMINSTER   PTSUNNY   72  32  23 SW9       30.15F
PRINCE ALBERT  PTSUNNY   75  30  19 NE14      30.11F
REGINA         PTSUNNY   66  32  28 N13G28    30.10F
YORKTON        SUNNY     68  30  24 NE15G23   30.06S



USA.gov is the U.S. government's official web portal to all federal, state and local government web resources and services.